{"data":{"norad_id":63644,"intl_designator":"2025-083L","name":"STARLINK-33852","alt_names":[],"object_type":"PAYLOAD","status":"ACTIVE","operator":null,"country":"US","launch_date":"2025-04-25","launch_site_code":"AFETR","launch_vehicle":null,"mission":null,"orbit_class":"UNKNOWN","rcs_meters":null,"size_class":null,"mass_kg":null,"dimensions":null,"purposes":["comms"],"wikipedia_slug":null,"has_3d_model":false,"image_url":null,"decayed_at":null,"tle_current":{"epoch":"2026-05-25T02:58:27.692832Z","epoch_age_seconds":60264,"freshness":"FRESH","line1":"1 63644U 25083L   26145.12393163  .00024689  00000+0  90365-3 0  9991","line2":"2 63644  42.9957 293.8006 0000702 297.0455  63.0324 15.27581746 61786","mean_motion":15.27581746,"eccentricity":7.02e-5,"inclination_deg":42.9957,"raan_deg":293.8006,"arg_perigee_deg":297.0455,"mean_anomaly_deg":63.0324,"bstar":0.00090365,"rev_number":6178,"period_min":94.266640968358,"perigee_km":482.56221299559,"apogee_km":483.52552278944,"semimajor_km":6861.1808678925,"source":"CELESTRAK","updated_at":"2026-05-25T13:38:20.054094Z"}}}